Simultaneous Nadir Overpasses (SNOs) Predictions

Prediction of SNOs between GOES-17 and METOP-C Satellite Orbit:

Table of predicted SNOs for the next 14.0 days since TLE Epoch: 2/6/2021
Index Date Time (GOES-17) GOES-17 Lat,Lon METOP-C Lat,Lon Distance(km) Time Diff (sec)
1 02/06/2021 06:32:53 -0.01,-137.22 0.34,-135.62 182.01 80
2 02/07/2021 18:54:24 0.02,-137.22 0.68,-140.18 337.13 80
3 02/08/2021 18:31:05 0.02,-137.21 -0.42,-135.18 230.91 80
4 02/10/2021 06:50:06 -0.01,-137.17 -0.58,-139.78 296.93 80
5 02/11/2021 06:32:07 -0.01,-137.16 0.52,-134.78 270.84 80
6 02/12/2021 18:48:18 0.01,-137.16 0.51,-139.34 249.02 80
7 02/13/2021 18:30:19 0.01,-137.15 -0.59,-134.34 318.75 80
8 02/15/2021 06:46:40 -0.01,-137.11 -0.40,-138.95 209.16 80
9 02/16/2021 06:28:40 -0.01,-137.09 0.70,-133.95 358.38 80
10 02/17/2021 18:44:52 0.01,-137.08 0.35,-138.50 162.34 80
11 02/18/2021 18:26:53 0.01,-137.06 -0.81,-133.52 404.71 80
